Location: Arclight Observatory
(36.5667°N, 87.3333°W)
Time: 07:33:37
(UTC-05:00)

Daily predictions for brighter satellites

Satellite Brightness Start Highest point End
(mag) Time Altitude Azimuth Time Altitude Azimuth Time Altitude Azimuth
Cosmos 1378 3.4 20:37:49 10° SSW 20:41:31 71° W 20:45:13 10° N
Cosmos 1707 2.7 20:38:03 10° S 20:41:53 69° E 20:45:43 10° NNE
Cosmos 1607 4.1 20:36:47 10° NNW 20:43:11 71° ENE 20:49:23 10° SE
Cosmos 1626 Rocket 4.0 20:40:28 10° SSW 20:44:54 69° W 20:49:21 10° N
H-2A R/B 3.6 20:41:29 10° ESE 20:45:24 22° ENE 20:49:23 10° NNE
NOSS 2-3 (D) 4.4 20:41:23 10° SW 20:45:49 63° NW 20:50:54 10° NNE
Meteor 2-11 Rocket 4.5 20:40:08 10° S 20:46:06 63° E 20:52:05 10° NNE
SJ-11-01 4.3 20:44:12 10° SSE 20:48:55 76° ENE 20:53:40 10° N
Cosmos 1315 Rocket 3.7 20:47:41 10° SSE 20:51:14 31° E 20:54:51 10° NNE
OAO 3 Copernicus 4.3 20:47:10 10° W 20:52:14 72° S 20:57:15 10° ESE
Resurs 1-3 3.7 20:50:08 10° SSE 20:54:30 86° WSW 20:58:55 10° NNW
Cosmos 1953 2.7 20:51:06 10° NNW 20:55:03 66° W 20:59:01 10° S
Cosmos 1602 Rocket 4.5 20:55:07 10° SSW 20:59:28 53° W 21:03:52 10° N
Hubble Space Telescope 3.0 20:57:58 10° SW 20:59:48 13° SSW 21:01:38 10° S
H-II Stage 2 3.9 20:58:13 10° SSW 21:00:05 11° S 21:01:26 10° SSE
Thor Agena Rocket 4.1 20:56:13 10° N 21:01:15 63° WNW 21:06:14 10° SSW
BREEZE-M R/B 2.3 20:59:19 10° WNW 21:02:39 56° SW 21:04:34 15° SE
USA 186 3.6 21:00:03 10° SSW 21:02:59 30° W 21:05:48 10° NW
Cosmos 1812 Rocket 3.6 21:00:22 10° N 21:04:43 84° W 21:09:06 10° S
Cosmos 1943 3.6 21:03:12 10° NNW 21:08:46 61° WSW 21:14:17 10° S
Cosmos 2278 Rocket 4.1 21:08:20 10° ESE 21:09:10 10° E 21:10:04 10° E
ERS-2 2.3 21:05:59 10° S 21:09:38 76° WSW 21:13:19 10° NNW
Cosmos 1953 Rocket 3.9 21:06:38 10° SSE 21:10:45 43° E 21:14:54 10° NNE
Cosmos 1726 4.4 21:13:35 10° ENE 21:14:23 11° ENE 21:15:13 10° E
ATLAS 2AS CENTAUR R/B 3.1 21:07:23 10° SSW 21:14:54 61° ESE 21:22:50 10° NE
Cosmos 1238 Rocket 2.7 21:13:47 17° SSE 21:15:42 35° E 21:18:26 10° NNE
Cosmos 1758 Rocket 3.6 21:11:47 10° S 21:16:11 65° E 21:20:34 10° NNE
OAO 3 Rocket 3.2 21:11:46 10° WSW 21:16:44 72° S 21:21:38 10° E
Lacrosse 5 2.1 21:11:50 10° SW 21:16:53 77° NW 21:21:58 10° NE
Resurs 01 Rocket 2.5 21:13:20 10° S 21:17:36 49° W 21:21:55 10° NNW
SL-8 R/B 3.6 21:13:35 10° SW 21:18:23 74° SE 21:23:12 10° ENE
ARGOS 3.4 21:13:56 13° SSE 21:18:36 54° ENE 21:23:53 10° N
Cosmos 1400 Rocket 3.9 21:15:00 10° SSW 21:18:52 46° W 21:22:45 10° N
Helios 1B rocket 4.5 21:21:50 10° ENE 21:23:15 12° E 21:23:15 12° E
Aureole 1 Rocket 3.0 21:20:50 10° SSW 21:23:51 56° WNW 21:27:25 10° N
Iridium 4 Rocket 3.7 21:23:12 10° S 21:28:57 90° NE 21:34:18 10° N
MetOp-A 4.2 21:24:48 16° SSE 21:29:06 65° ENE 21:34:25 10° N
ERS-1 Rocket 3.7 21:26:46 19° SE 21:29:55 39° ENE 21:34:34 10° N
Cosmos 1844 4.0 21:25:03 10° S 21:30:25 46° ESE 21:35:54 10° NE
Cosmos 1844 Rocket 2.7 21:24:58 10° S 21:30:33 63° ESE 21:36:09 10° NNE
Cosmos 1346 Rocket 3.5 21:27:05 10° N 21:30:51 39° ENE 21:32:47 24° SE
SL-08 RB Rocket 3.8 21:35:38 21° SSE 21:38:39 64° ENE 21:43:17 10° N
Meteor 1-24 Rocket 3.8 21:33:33 10° S 21:39:34 83° E 21:45:37 10° N
ATLAS 3B CENTAUR R/B 4.4 21:23:04 10° SW 21:40:43 35° S 21:46:47 19° ESE
Cosmos 1825 Rocket 4.4 21:37:10 10° SSW 21:41:32 52° W 21:45:53 10° N
USA 215 3.7 21:40:27 18° SSE 21:45:20 55° SW 21:51:45 10° NW
Cosmos 921 Rocket 3.6 21:43:09 10° N 21:47:27 43° ENE 21:49:14 29° ESE
NOSS 3-4 (A) 4.2 21:50:38 25° SE 21:52:35 30° ESE 21:57:55 10° NE
NOSS 3-4 (C) 4.2 21:50:51 25° SE 21:52:40 30° ESE 21:57:59 10° NE
Cosmos 1437 2.9 21:56:50 10° NNW 21:59:58 66° W 22:00:49 43° SSW
Cosmos 1908 3.2 21:58:00 10° N 22:01:51 64° E 22:02:49 45° SE
Cosmos 1461 3.8 22:08:00 35° ESE 22:08:00 35° ESE 22:12:09 10° NE
CARTOSAT-1 4.5 22:10:02 30° E 22:10:48 32° ENE 22:14:39 10° N
Cosmos 1626 4.4 22:14:08 14° ENE 22:14:08 14° ENE 22:15:13 10° NE
Meteor 2-1 Rocket 4.3 22:07:38 10° N 22:13:36 80° E 22:16:22 33° SSE
S3M 4.0 22:10:09 25° S 22:13:58 73° E 22:20:21 10° N
Cosmos 220 Rocket 3.9 22:13:14 48° SSE 22:14:08 61° ESE 22:18:18 10° NNE
Terra 2.7 22:14:51 30° E 22:15:54 34° ENE 22:20:10 10° N
CZ-2C R/B 3.8 22:12:45 10° NE 22:17:05 24° E 22:17:05 24° E
Cosmos 1340 2.8 22:14:10 10° N 22:17:54 54° E 22:18:05 53° E
IGS 5A 4.0 22:19:09 39° E 22:19:36 40° ENE 22:23:30 10° N
APEX 4.4 22:17:57 10° N 22:20:32 25° ENE 22:20:32 25° ENE
SPOT 1/Viking Rocket 3.4 22:22:21 42° SSE 22:24:07 82° ENE 22:29:17 10° N
H-2A R/B 3.0 22:21:14 21° SSW 22:24:26 44° W 22:29:34 10° NNW
Cosmos 1110 Rocket 3.9 22:19:27 10° NNW 22:24:39 85° WSW 22:26:21 44° S
Cosmos 1674 4.0 22:25:41 22° SW 22:27:40 38° W 22:31:16 10° N
Cosmos-2242 4.3 22:25:55 10° NNW 22:29:57 37° W 22:31:59 23° SW
H-2A R/B (2) 4.4 22:28:29 30° SSE 22:30:50 32° SE 23:06:51 10° ENE
H-2A R/B (2) 4.4 22:28:30 30° SSE 22:30:50 32° SE 23:06:50 10° ENE
Cosmos 1300 3.4 22:28:32 10° N 22:31:48 40° ENE 22:31:48 40° ENE
Cosmos 2084 3.8 22:31:57 10° NW 22:35:38 45° WSW 22:35:44 45° WSW
Cosmos 1553 Rocket 4.3 22:33:39 20° SSW 22:37:53 61° W 22:43:54 10° N
Cosmos 1331 Rocket 4.1 22:33:49 10° NNW 22:39:00 71° WSW 22:40:25 47° S
Cosmos 1842 Rocket 3.4 22:36:07 10° N 22:40:29 86° W 22:40:56 71° S
USA 238 DEB 3.7 22:34:14 10° NNW 22:41:27 89° WSW 22:44:13 42° SSE
USA 238 3.7 22:34:21 10° NNW 22:41:33 90° SSW 22:44:19 42° SSE
ATLAS 3B R/B 2.6 22:35:37 10° NNW 22:42:14 70° ENE 22:44:26 43° SE
Meteor 1-21 Rocket 4.3 22:43:12 35° SSW 22:45:48 79° W 22:51:39 10° N
Helios 1A 3.4 22:45:57 48° SW 22:46:30 52° W 22:50:36 10° NNW
SPOT 5 3.5 22:47:50 40° SSW 22:49:18 53° W 22:54:25 10° NNW
Cosmos 1726 3.1 22:46:19 10° NNW 22:49:50 39° W 22:50:03 39° WSW
Cosmos 2278 Rocket 2.1 22:50:06 38° SSW 22:52:22 85° WNW 22:58:05 10° NNE
Cosmos 2315 Rocket 4.1 22:52:00 50° SE 22:53:20 61° E 22:59:35 10° NNE
Cosmos 883 Rocket 4.4 22:51:42 48° S 22:53:34 82° E 22:59:48 10° N
NOSS 3-2 (A) 4.1 22:46:46 10° NNW 22:54:28 74° ENE 22:57:41 41° SE
Helios 1B rocket 3.3 22:54:52 10° N 22:58:48 46° WNW 22:59:36 40° WSW
OAO 3 Rocket 3.4 22:55:18 10° W 22:59:32 58° SW 22:59:32 58° SW
SL-14 R/B 3.9 23:02:20 48° W 23:02:20 48° W 23:06:08 10° N
Okean 3 Rocket 4.0 23:03:23 51° NE 23:03:23 51° NE 23:06:58 10° NNE
Cosmos 1386 Rocket 4.5 22:57:54 10° N 23:03:57 71° W 23:05:35 49° SSW
Cosmos 1302 Rocket 3.9 23:01:06 10° NNW 23:06:23 73° WSW 23:06:56 66° SSW
COSMOS 2406 3.7 23:01:47 10° NNW 23:07:21 50° WSW 23:08:28 44° SW
Cosmos 2251 Rocket 4.4 23:05:50 24° SW 23:08:41 46° WNW 23:13:49 10° N
CZ-2C R/B 3.3 23:09:46 61° S 23:10:50 80° WSW 23:16:39 10° NNW
NOSS 3-2 (C) 4.1 23:11:17 10° NNW 23:19:02 77° ENE 23:21:38 48° SE
Cosmos 2221 3.0 23:15:14 10° NNW 23:19:04 56° WNW 23:19:04 56° WNW
Cosmos 1992 Rocket 4.3 23:19:43 10° N 23:24:47 53° ENE 23:24:47 53° ENE
Aureole 3 Rocket 4.3 23:24:05 47° SSW 23:26:40 83° W 23:32:51 10° N
Cosmos 2297 3.6 23:34:22 80° E 23:34:22 80° E 23:40:01 10° NNE
ATLAS 5 CENTAUR R/B 2.2 23:35:21 53° WNW 23:35:28 54° NW 23:40:12 10° NNE
Meteor 1-27 4.4 23:32:05 10° N 23:37:53 63° E 23:38:01 63° E
NOSS 3-4 (C) 4.5 23:38:08 13° WSW 23:43:16 43° NW 23:49:20 10° NNE
Cosmos 2082 Rocket 2.3 23:37:35 10° NNW 23:43:17 66° ENE 23:43:22 66° ENE
RESURS DK-1 3.7 23:46:15 38° N 23:46:15 38° N 23:48:55 10° NNE
Cosmos 1626 4.3 23:48:43 23° WNW 23:48:43 23° WNW 23:51:04 10° NNW
Cosmos 1833 Rocket 2.6 23:42:35 10° NNW 23:48:06 82° NE 23:48:06 82° NE
Cosmos 407 Rocket 4.2 23:50:46 44° NE 23:50:46 44° NE 23:54:34 10° NNE
COBE Rocket 4.3 23:45:16 10° N 23:50:17 61° WNW 23:50:20 61° WNW
ADEOS Rocket 3.4 23:45:07 10° NNE 23:50:52 52° E 23:50:52 52° E
Terra 3.6 23:53:44 21° W 23:53:44 21° W 23:57:18 10° NW
